STARLINK-31747, 59564

Orbit data source: Space-Track

STARLINK-31747, 59564 is a payload satellite owned by SpaceX/Seattle (US) in LEO that was launched on Tue, 23 Apr 2024 UTC via an FALCON 9 launch vehicle from the Air Force Eastern Test Range (AFETR). Payload-class satellites include a variety of spacecraft equipped with specific instruments for various scientific and technological missions. These include communications satellites like Starlink; space stations such as the ISS; scientific satellites like the Hubble; Earth observation satellites from companies like Planet Labs, Umbra, and HawkEye 360; GPS; miniature CubeSats for education and research; and military/defense satellites.

Loading next visibility...
Identifier
59564, 2024-076A
Orbit
LEO
Country
Flag of USUS
Related business
Manufacturer
SpaceX/Seattle
Mission
Operational spacecraft
Bus & Motor
STARLINK V2M, Unknown motor
Mass
730 kg wet, ~700 kg dry
Launch date (UTC)
2024-04-23 (1 year ago)
Launch vehicle
FALCON 9
Launch site
Air Force Eastern Test Range (AFETR)
Object type
Payload
Rocket body
Debris
Shape & HBR
Unknown
Radar Cross Section
Large (>1 m²)

Expand to show TLE details & history
Last TLE update: 21 hours ago

TLE from 21 hours ago
0 STARLINK-31747
1 59564U 24076A   25257.46397341  .00000416  00000-0  24632-4 0  9998
2 59564  43.0010 273.6448 0001240 273.5566  86.5144 15.27577337 79667
Epoch: 2025-09-14T11:08Z
TLE epoch observation values (Epoch: 2025-09-14T11:08:07.302Z)
Latitude
-0.00001°
Longitude
112.93175°
Altitude
482.781 km
Speed
7.626 km/s
True Right ascension
18h 14m 34s
True Declination
0° 00' 00"
Sunlit
Object was in daylight at epoch
Visualization orbit readout
Latitude
Unknown
Longitude
Unknown
Altitude
Unknown
Speed
Unknown
Apparent Right ascension
Unknown
Apparent Declination
Unknown
Sunlit
N/A
Visualization observer readout
Local Sidereal Time
00:38:58
Azimuth
Unknown
Elevation
Unknown
Doppler factor
Unknown
Orbital elements
Apogee altitude
485.853 km
Perigee altitude
484.151 km
Semi-major axis
6,863.139 km
Eccentricity
0.00012
Inclination
43.001°
RAAN
273.6448°
Arg. of periapsis
273.5566°
True anomaly
86.52858°
Mean anomaly
86.5144°
Eccentric anomaly
86.52149°
Mean motion
3.81732 °/min
Orbital period
94.31 mins
BSTAR
0.000024632
Loading maneuver chart data...
Computing Atmospheric mass density...
Loading historical data...
Loading historical data...
Loading historical data...
Loading historical data...
Loading historical data...
Loading historical data...
Loading historical data...

Documentation

Showing up to 5 results
|